Location: Dal�� Lhota
(48.7500°N, 14.0167°E)
Time: 16:55:16
(UTC+00:00)

Explorer 7 - Pass Details

Date: 02 August 2021
Orbit: 484 x 676 km, 50.3° (Epoch: 20 September)

Event Time Altitude Azimuth Distance (km) Brightness Sun altitude
Rises 07:00:34 0° 279° (W) 2,614 9.7 31.3°
Reaches altitude 10° 07:02:43 10° 281° (W) 1,752 9.0 31.6°
Maximum altitude 07:06:41 73° 7° (N) 570 7.4 32.3°
Drops below altitude 10° 07:10:54 10° 92° (E) 1,861 11.0 33.0°
Sets 07:13:15 0° 94° (E) 2,794 11.5 33.3°
